Location: Stanford
(52.2833°N, 2.4333°W)
Time: 23:59:57
(UTC+00:00)

Cosmos 1703 - Pass Details

Date: 22 January 2021
Orbit: 524 x 538 km, 82.5° (Epoch: 01 March)

Event Time Altitude Azimuth Distance (km) Brightness Sun altitude
Rises 18:42:20 0° 179° (S) 2,653 6.9 -18.4°
Reaches altitude 10° 18:44:29 10° 176° (S) 1,767 5.9 -18.8°
Maximum altitude 18:48:17 59° 97° (E) 616 3.2 -19.3°
Enters shadow 18:48:46 54° 63° (ENE) 649 3.3 -19.4°
